| time (UTC) | temp F | wind direction | speed MPH | gust MPH | rain 1hr in | rain 24hr in | rain mn in | humidity % | barometer mb |
| 20260906033102 | 80 | 0 | 0.0 | 0.0 | 0.00 | 2.05 | 2.05 | 97 | 1012.5 |
| 20260906031557 | 80 | 0 | 0.0 | 0.0 | 0.00 | 2.05 | 2.05 | 96 | 1012.4 |
| 20260906030118 | 81 | 0 | 0.0 | 0.0 | 0.00 | 2.05 | 2.05 | 95 | 1012.3 |
| 20260906024630 | 81 | 0 | 0.0 | 0.0 | 0.00 | 2.05 | 2.05 | 94 | 1012.2 |
| 20260906023107 | 81 | 0 | 0.0 | 0.0 | 0.00 | 2.05 | 2.05 | 94 | 1011.8 |
| 20260906021611 | 82 | 0 | 0.0 | 0.0 | 0.00 | 2.05 | 2.05 | 93 | 1011.7 |
| 20260906020112 | 81 | 0 | 0.0 | 0.0 | 0.00 | 2.05 | 2.05 | 94 | 1011.5 |
| 20260906014614 | 81 | 0 | 0.0 | 0.0 | 0.00 | 2.05 | 2.05 | 95 | 1011.1 |
| 20260906013100 | 81 | 0 | 0.0 | 0.0 | 0.00 | 2.05 | 2.05 | 95 | 1011.1 |
| 20260906011600 | 81 | 0 | 0.0 | 0.0 | 0.00 | 2.05 | 2.05 | 95 | 1011.0 |
| 20260906010118 | 82 | 0 | 0.0 | 0.0 | 0.00 | 2.05 | 2.05 | 95 | 1010.9 |
| 20260906004557 | 82 | 0 | 0.0 | 0.0 | 0.00 | 2.05 | 2.05 | 94 | 1011.0 |
| 20260906003113 | 83 | 0 | 0.0 | 0.0 | 0.00 | 2.05 | 2.05 | 92 | 1011.0 |
| 20260906001601 | 85 | 0 | 0.0 | 0.0 | 0.00 | 2.05 | 2.05 | 88 | 1011.1 |
| 20260906000109 | 86 | 0 | 0.0 | 0.0 | 0.00 | 2.05 | 2.05 | 86 | 1011.2 |
| 20260905234609 | 87 | 0 | 0.0 | 3.0 | 0.00 | 2.05 | 2.05 | 85 | 1011.2 |
| 20260905233100 | 88 | 0 | 1.0 | 3.0 | 0.00 | 2.05 | 2.05 | 85 | 1011.4 |
| 20260905231602 | 88 | 153 | 0.0 | 5.0 | 0.00 | 2.05 | 2.05 | 85 | 1011.3 |
| 20260905230100 | 87 | 127 | 0.0 | 1.0 | 0.00 | 2.05 | 2.05 | 86 | 1011.2 |
| 20260905224602 | 87 | 0 | 0.0 | 0.0 | 0.00 | 2.05 | 2.05 | 86 | 1011.1 |
| 20260905223102 | 87 | 0 | 0.0 | 0.0 | 0.00 | 2.05 | 2.05 | 87 | 1011.0 |
| 20260905221558 | 86 | 0 | 1.0 | 3.0 | 0.00 | 2.05 | 2.05 | 86 | 1011.0 |
| 20260905220110 | 86 | 53 | 1.0 | 5.0 | 0.00 | 2.05 | 2.05 | 85 | 1011.0 |
| 20260905214604 | 87 | 0 | 0.0 | 3.0 | 0.00 | 2.05 | 2.05 | 83 | 1011.0 |
| 20260905213105 | 88 | 0 | 1.0 | 4.0 | 0.00 | 2.05 | 2.05 | 79 | 1011.2 |
| 20260905211607 | 90 | 56 | 1.0 | 4.0 | 0.00 | 2.05 | 2.05 | 76 | 1011.4 |
| 20260905210103 | 92 | 107 | 2.0 | 8.0 | 0.00 | 2.05 | 2.05 | 73 | 1011.2 |
| 20260905204604 | 94 | 198 | 1.0 | 8.0 | 0.00 | 2.05 | 2.05 | 70 | 1011.2 |
| 20260905203107 | 94 | 163 | 2.0 | 7.0 | 0.00 | 2.05 | 2.05 | 71 | 1011.2 |
| 20260905201601 | 93 | 195 | 3.0 | 8.0 | 0.00 | 2.05 | 2.05 | 70 | 1011.5 |
| 20260905200106 | 92 | 191 | 3.0 | 8.0 | 0.00 | 2.05 | 2.05 | 72 | 1011.7 |
| 20260905194604 | 95 | 125 | 3.0 | 6.0 | 0.00 | 2.05 | 2.05 | 67 | 1012.0 |
| 20260905193109 | 95 | 158 | 1.0 | 3.0 | 0.00 | 2.05 | 2.05 | 65 | 1012.0 |
| 20260905191603 | 95 | 247 | 2.0 | 5.0 | 0.00 | 2.05 | 2.05 | 67 | 1012.1 |
| 20260905190100 | 95 | 50 | 0.0 | 4.0 | 0.00 | 2.05 | 2.05 | 68 | 1012.2 |
| 20260905184612 | 96 | 159 | 0.0 | 3.0 | 0.00 | 2.05 | 2.05 | 67 | 1012.4 |
| 20260905183105 | 95 | 73 | 1.0 | 3.0 | 0.00 | 2.05 | 2.05 | 66 | 1012.7 |
| 20260905181602 | 94 | 105 | 2.0 | 4.0 | 0.00 | 2.05 | 2.05 | 64 | 1012.9 |
| 20260905180101 | 94 | 0 | 0.0 | 3.0 | 0.00 | 2.05 | 2.05 | 69 | 1013.3 |
| 20260905174605 | 94 | 0 | 0.0 | 0.0 | 0.00 | 2.05 | 2.05 | 71 | 1013.5 |
| 20260905173059 | 94 | 0 | 0.0 | 0.0 | 0.00 | 2.05 | 2.05 | 70 | 1013.6 |
| 20260905171607 | 93 | 0 | 0.0 | 0.0 | 0.00 | 2.05 | 2.05 | 70 | 1013.7 |
| 20260905170114 | 93 | 0 | 0.0 | 0.0 | 0.00 | 2.05 | 2.05 | 71 | 1014.0 |
| 20260905164601 | 92 | 0 | 0.0 | 0.0 | 0.00 | 2.05 | 2.05 | 73 | 1014.2 |
| 20260905163101 | 89 | 0 | 0.0 | 0.0 | 0.00 | 2.05 | 2.05 | 80 | 1014.1 |
| 20260905161558 | 89 | 0 | 0.0 | 0.0 | 0.00 | 2.05 | 2.05 | 81 | 1014.1 |
| 20260905160109 | 89 | 0 | 0.0 | 0.0 | 0.00 | 2.05 | 2.05 | 87 | 1014.0 |
| 20260905154605 | 89 | 0 | 0.0 | 0.0 | 0.00 | 2.23 | 2.05 | 82 | 1014.0 |
| 20260905153100 | 88 | 0 | 0.0 | 0.0 | 0.00 | 2.23 | 2.05 | 85 | 1014.2 |
| 20260905151604 | 87 | 0 | 0.0 | 0.0 | 0.00 | 2.23 | 2.05 | 91 | 1014.2 |
| 20260905144605 | 83 | 0 | 0.0 | 0.0 | 0.00 | 3.43 | 2.05 | 100 | 1014.1 |
| 20260905143100 | 82 | 0 | 0.0 | 0.0 | 0.00 | 3.43 | 2.05 | 100 | 1014.1 |
| 20260905141558 | 80 | 0 | 0.0 | 0.0 | 0.00 | 3.43 | 2.05 | 100 | 1014.1 |
| 20260905140059 | 80 | 0 | 0.0 | 0.0 | 0.00 | 3.43 | 2.05 | 100 | 1014.1 |
| 20260905134559 | 79 | 0 | 0.0 | 0.0 | 0.00 | 3.43 | 2.05 | 100 | 1014.0 |
| 20260905133102 | 78 | 0 | 0.0 | 0.0 | 0.00 | 3.43 | 2.05 | 100 | 1013.8 |
| 20260905131600 | 76 | 0 | 0.0 | 0.0 | 0.00 | 3.43 | 2.05 | 100 | 1013.8 |
| 20260905130059 | 75 | 0 | 0.0 | 0.0 | 0.00 | 3.43 | 2.05 | 100 | 1013.7 |
| 20260905124608 | 75 | 0 | 0.0 | 0.0 | 0.00 | 3.43 | 2.05 | 100 | 1013.5 |
| 20260905123105 | 75 | 0 | 0.0 | 0.0 | 0.00 | 3.43 | 2.05 | 100 | 1013.4 |
| 20260905121600 | 74 | 0 | 0.0 | 0.0 | 0.00 | 3.43 | 2.05 | 100 | 1013.2 |
| 20260905120105 | 74 | 0 | 0.0 | 0.0 | 0.00 | 3.43 | 2.05 | 100 | 1013.2 |
| 20260905114558 | 74 | 0 | 0.0 | 0.0 | 0.00 | 3.43 | 2.05 | 100 | 1012.9 |
| 20260905113106 | 74 | 0 | 0.0 | 0.0 | 0.00 | 3.43 | 2.05 | 100 | 1012.8 |
| 20260905111646 | 74 | 0 | 0.0 | 0.0 | 0.00 | 3.43 | 2.05 | 100 | 1012.7 |
| 20260905110059 | 74 | 0 | 0.0 | 0.0 | 0.00 | 3.43 | 2.05 | 100 | 1012.6 |
| 20260905104602 | 75 | 0 | 0.0 | 0.0 | 0.00 | 3.43 | 2.05 | 100 | 1012.5 |
| 20260905103106 | 75 | 0 | 0.0 | 0.0 | 0.00 | 3.43 | 2.05 | 100 | 1012.5 |
| 20260905101603 | 75 | 0 | 0.0 | 0.0 | 0.00 | 3.43 | 2.05 | 100 | 1012.3 |
| 20260905100110 | 75 | 0 | 0.0 | 0.0 | 0.00 | 3.43 | 2.05 | 100 | 1012.4 |
| 20260905094559 | 75 | 0 | 0.0 | 0.0 | 2.05 | 3.43 | 2.05 | 100 | 1012.3 |
| 20260905093101 | 75 | 0 | 0.0 | 0.0 | 2.05 | 3.43 | 2.05 | 100 | 1012.4 |
| 20260905091607 | 75 | 0 | 0.0 | 0.0 | 2.05 | 3.43 | 2.05 | 100 | 1012.5 |
| 20260905084603 | 75 | 0 | 0.0 | 0.0 | 0.00 | 1.38 | 0.00 | 100 | 1012.3 |
| 20260905083100 | 75 | 0 | 0.0 | 0.0 | 0.00 | 1.38 | 0.00 | 100 | 1012.3 |
| 20260905081607 | 75 | 0 | 0.0 | 0.0 | 0.00 | 1.38 | 0.00 | 100 | 1012.4 |
| 20260905080104 | 75 | 0 | 0.0 | 0.0 | 0.00 | 1.38 | 0.00 | 97 | 1012.4 |
| 20260905074600 | 76 | 0 | 0.0 | 0.0 | 0.00 | 1.38 | 0.00 | 97 | 1012.3 |
| 20260905073101 | 76 | 0 | 0.0 | 0.0 | 0.00 | 1.38 | 0.00 | 97 | 1012.6 |
| 20260905071603 | 76 | 0 | 0.0 | 0.0 | 0.00 | 1.38 | 0.00 | 97 | 1012.8 |
| 20260905070108 | 76 | 0 | 0.0 | 0.0 | 0.00 | 1.38 | 0.00 | 97 | 1012.8 |
| 20260905064603 | 76 | 0 | 0.0 | 0.0 | 0.00 | 1.38 | 0.00 | 97 | 1012.9 |
| 20260905063103 | 76 | 0 | 0.0 | 0.0 | 0.00 | 1.38 | 0.00 | 97 | 1012.9 |
| 20260905061613 | 77 | 0 | 0.0 | 0.0 | 0.00 | 1.38 | 0.00 | 97 | 1013.0 |
| 20260905060104 | 77 | 0 | 0.0 | 0.0 | 0.00 | 1.38 | 0.00 | 97 | 1013.2 |
| 20260905054601 | 77 | 0 | 0.0 | 0.0 | 0.00 | 1.38 | 0.00 | 97 | 1013.0 |
| 20260905053103 | 78 | 0 | 0.0 | 0.0 | 0.00 | 1.38 | 0.00 | 97 | 1013.0 |
| 20260905051558 | 78 | 0 | 0.0 | 0.0 | 0.00 | 1.38 | 0.00 | 97 | 1012.9 |
| 20260905050107 | 78 | 0 | 0.0 | 0.0 | 0.00 | 1.38 | 0.00 | 97 | 1012.9 |
| 20260905044606 | 78 | 0 | 0.0 | 0.0 | 0.00 | 1.38 | 1.38 | 97 | 1013.0 |
| 20260905043057 | 78 | 0 | 0.0 | 0.0 | 0.00 | 1.38 | 1.38 | 96 | 1013.1 |
| 20260905041557 | 78 | 0 | 0.0 | 0.0 | 0.00 | 1.38 | 1.38 | 96 | 1013.3 |
| 20260905040105 | 78 | 0 | 0.0 | 0.0 | 0.00 | 1.38 | 1.38 | 96 | 1013.4 |
| 20260905034607 | 78 | 0 | 0.0 | 0.0 | 0.00 | 1.38 | 1.38 | 96 | 1013.5 |